This is the latest recevied weather packets stored in our database for station/object KA0EGE. If no packets are shown the sender has not sent any weather packets the latest 10 day(s).
| Time | Temp. | Humidity | Pressure | Rain* | Wind** | Luminosity | Snow |
|---|---|---|---|---|---|---|---|
| 1777990886 | 22.22° C | 71% | 1018.8 hPa | 0 mm | - | 512 W/m² | - |
| 1777990584 | 22.22° C | 71% | 1018.8 hPa | 0 mm | - | 429 W/m² | - |
| 1777989977 | 21.67° C | 74% | 1018.7 hPa | 0 mm | - | 473 W/m² | - |
| 1777989674 | 21.11° C | 74% | 1018.5 hPa | 0 mm | - | 443 W/m² | - |
| 1777989370 | 20.56° C | 77% | 1018.4 hPa | 0 mm | - | 452 W/m² | - |
| 1777989067 | 20.56° C | 77% | 1018.6 hPa | 0 mm | - | 434 W/m² | - |
| 1777988762 | 20° C | 78% | 1018.6 hPa | 0 mm | - | 430 W/m² | - |
| 1777988460 | 19.44° C | 80% | 1018.7 hPa | 0 mm | - | 332 W/m² | - |
| 1777988157 | 19.44° C | 80% | 1018.7 hPa | 0 mm | - | 369 W/m² | - |
| 1777987853 | 19.44° C | 79% | 1018.6 hPa | 0 mm | - | 337 W/m² | - |
| 1777987549 | 18.89° C | 80% | 1018.8 hPa | 0 mm | - | 255 W/m² | - |
| 1777987247 | 18.89° C | 81% | 1018.7 hPa | 0 mm | - | 305 W/m² | - |
| 1777986943 | 18.33° C | 82% | 1018.5 hPa | 0 mm | - | 293 W/m² | - |
| 1777986642 | 17.78° C | 83% | 1018.7 hPa | 0 mm | - | 246 W/m² | - |
| 1777986339 | 17.78° C | 84% | 1018.4 hPa | 0 mm | - | 192 W/m² | - |
| 1777986038 | 17.22° C | 86% | 1018.4 hPa | 0 mm | - | 178 W/m² | - |
| 1777985734 | 16.67° C | 86% | 1018.5 hPa | 0 mm | - | 147 W/m² | - |
| 1777985431 | 16.11° C | 87% | 1018.4 hPa | 0 mm | - | 98 W/m² | - |
| 1777985127 | 16.11° C | 88% | 1018.6 hPa | 0 mm | - | 92 W/m² | - |
| 1777984823 | 15.56° C | 89% | 1018.5 hPa | 0 mm | - | 115 W/m² | - |
| 1777984520 | 15.56° C | 89% | 1018.5 hPa | 0 mm | - | 120 W/m² | - |
| 1777984216 | 15° C | 91% | 1018.6 hPa | 0 mm | - | 129 W/m² | - |
| 1777983914 | 15° C | 93% | 1018.6 hPa | 0 mm | - | 121 W/m² | - |
| 1777983610 | 13.89° C | 94% | 1018.5 hPa | 0 mm | - | 114 W/m² | - |
| 1777983307 | 13.33° C | 94% | 1018.4 hPa | 0 mm | - | 92 W/m² | - |
* Rain latest hour (hover to see other rain measurements)
** Current wind speed in m/s (hover to see current wind gust speed)